Time,TemperatureF,DewpointF,PressureIn,WindDirection,WindDirectionDegrees,WindSpeedMPH,WindSpeedGustMPH,Humidity,HourlyPrecipIn,Conditions,Clouds,dailyrainin,SoftwareType,DateUTC
2013-03-20 00:10:00,66.2,58.8,29.81,SW,225,0.0,-999.0,77,-99.99,,,0.00,Acu-Link.com,2013-03-20 04:10:00,
2013-03-20 00:25:00,66.0,58.6,29.81,South,180,0.0,-999.0,77,-99.99,,,0.00,Acu-Link.com,2013-03-20 04:25:00,
2013-03-20 00:56:00,65.5,58.5,29.81,SW,225,0.0,-999.0,78,-99.99,,,0.00,Acu-Link.com,2013-03-20 04:56:00,
2013-03-20 01:12:00,64.9,58.2,29.81,SW,225,1.7,-999.0,79,-99.99,,,0.00,Acu-Link.com,2013-03-20 05:12:00,
2013-03-20 01:42:00,65.3,59.0,29.81,North,0,2.7,-999.0,80,-99.99,,,0.00,Acu-Link.com,2013-03-20 05:42:00,
2013-03-20 02:13:00,65.3,59.3,29.78,WNW,292,0.0,-999.0,81,-99.99,,,0.00,Acu-Link.com,2013-03-20 06:13:00,
2013-03-20 02:28:00,65.1,59.5,29.78,NNE,22,5.3,-999.0,82,-99.99,,,0.00,Acu-Link.com,2013-03-20 06:28:00,
2013-03-20 02:43:00,64.9,59.3,29.78,West,270,0.0,-999.0,82,-99.99,,,0.00,Acu-Link.com,2013-03-20 06:43:00,
2013-03-20 02:59:00,65.1,59.8,29.78,NW,315,6.8,-999.0,83,-99.99,,,0.00,Acu-Link.com,2013-03-20 06:59:00,
2013-03-20 03:14:00,65.3,60.3,29.77,North,0,3.7,-999.0,84,-99.99,,,0.00,Acu-Link.com,2013-03-20 07:14:00,
2013-03-20 03:29:00,65.3,60.3,29.77,North,0,4.7,-999.0,84,-99.99,,,0.00,Acu-Link.com,2013-03-20 07:29:00,
2013-03-20 03:45:00,65.3,60.3,29.77,NNW,337,4.2,-999.0,84,-99.99,,,0.00,Acu-Link.com,2013-03-20 07:45:00,
2013-03-20 04:00:00,65.1,60.5,29.77,North,0,4.7,-999.0,85,-99.99,,,0.00,Acu-Link.com,2013-03-20 08:00:00,
2013-03-20 04:19:00,65.1,60.5,29.76,NNE,22,3.2,-999.0,85,-99.99,,,0.00,Acu-Link.com,2013-03-20 08:19:00,
2013-03-20 04:36:00,65.1,60.5,29.77,NNE,22,3.7,-999.0,85,-99.99,,,0.00,Acu-Link.com,2013-03-20 08:36:00,
2013-03-20 04:51:00,65.1,60.5,29.76,North,0,3.7,-999.0,85,-99.99,,,0.00,Acu-Link.com,2013-03-20 08:51:00,
2013-03-20 05:06:00,65.3,61.0,29.75,NNE,22,3.7,-999.0,86,-99.99,,,0.00,Acu-Link.com,2013-03-20 09:06:00,
2013-03-20 05:21:00,65.5,61.5,29.75,NNE,22,5.8,-999.0,87,-99.99,,,0.00,Acu-Link.com,2013-03-20 09:21:00,
2013-03-20 05:36:00,65.8,61.8,29.75,NNW,337,5.8,-999.0,87,-99.99,,,0.00,Acu-Link.com,2013-03-20 09:36:00,
2013-03-20 05:52:00,65.8,61.8,29.76,North,0,4.7,-999.0,87,-99.99,,,0.00,Acu-Link.com,2013-03-20 09:52:00,
2013-03-20 06:07:00,66.2,62.5,29.76,NNE,22,4.2,-999.0,88,-99.99,,,0.00,Acu-Link.com,2013-03-20 10:07:00,
2013-03-20 06:22:00,66.7,63.0,29.77,ENE,67,4.7,-999.0,88,-99.99,,,0.00,Acu-Link.com,2013-03-20 10:22:00,
2013-03-20 06:37:00,66.7,63.0,29.77,NE,45,2.7,-999.0,88,-99.99,,,0.00,Acu-Link.com,2013-03-20 10:37:00,
2013-03-20 07:07:00,66.7,63.0,29.76,ESE,112,7.3,-999.0,88,-99.99,,,0.00,Acu-Link.com,2013-03-20 11:07:00,
2013-03-20 07:23:00,66.7,63.0,29.78,South,180,0.0,-999.0,88,-99.99,,,0.00,Acu-Link.com,2013-03-20 11:23:00,
2013-03-20 07:38:00,66.7,63.0,29.79,ESE,112,0.0,-999.0,88,-99.99,,,0.00,Acu-Link.com,2013-03-20 11:38:00,
2013-03-20 07:53:00,66.7,63.0,29.79,ESE,112,0.0,-999.0,88,-99.99,,,0.00,Acu-Link.com,2013-03-20 11:53:00,
2013-03-20 08:09:00,66.9,63.2,29.80,ESE,112,0.0,-999.0,88,-99.99,,,0.00,Acu-Link.com,2013-03-20 12:09:00,
2013-03-20 08:24:00,67.5,63.8,29.78,East,90,4.7,-999.0,88,-99.99,,,0.00,Acu-Link.com,2013-03-20 12:24:00,
2013-03-20 08:39:00,67.5,63.8,29.78,ENE,67,5.8,-999.0,88,-99.99,,,0.00,Acu-Link.com,2013-03-20 12:39:00,
2013-03-20 08:54:00,67.6,63.9,29.80,East,90,3.7,-999.0,88,-99.99,,,0.00,Acu-Link.com,2013-03-20 12:54:00,
2013-03-20 09:10:00,68.0,64.3,29.80,East,90,3.2,-999.0,88,-99.99,,,0.00,Acu-Link.com,2013-03-20 13:10:00,
2013-03-20 09:25:00,68.7,64.3,29.78,East,90,5.3,-999.0,86,-99.99,,,0.00,Acu-Link.com,2013-03-20 13:25:00,
2013-03-20 09:40:00,69.3,64.9,29.78,NE,45,7.8,-999.0,86,-99.99,,,0.00,Acu-Link.com,2013-03-20 13:40:00,
2013-03-20 09:55:00,69.6,65.2,29.79,NE,45,5.8,-999.0,86,-99.99,,,0.00,Acu-Link.com,2013-03-20 13:55:00,
2013-03-20 10:10:00,70.0,65.3,29.79,East,90,6.3,-999.0,85,-99.99,,,0.00,Acu-Link.com,2013-03-20 14:10:00,
2013-03-20 10:25:00,70.7,65.6,29.78,East,90,5.8,-999.0,84,-99.99,,,0.00,Acu-Link.com,2013-03-20 14:25:00,
2013-03-20 10:56:00,72.5,65.6,29.80,East,90,2.2,-999.0,79,-99.99,,,0.00,Acu-Link.com,2013-03-20 14:56:00,
2013-03-20 11:11:00,72.9,65.3,29.81,ESE,112,5.8,-999.0,77,-99.99,,,0.00,Acu-Link.com,2013-03-20 15:11:00,
2013-03-20 11:27:00,73.0,65.0,29.80,ESE,112,5.3,-999.0,76,-99.99,,,0.00,Acu-Link.com,2013-03-20 15:27:00,
2013-03-20 11:42:00,73.9,65.1,29.80,ESE,112,1.1,-999.0,74,-99.99,,,0.00,Acu-Link.com,2013-03-20 15:42:00,
2013-03-20 12:12:00,74.1,64.1,29.79,ESE,112,0.0,-999.0,71,-99.99,,,0.00,Acu-Link.com,2013-03-20 16:12:00,
2013-03-20 12:28:00,75.0,64.5,29.77,ESE,112,0.0,-999.0,70,-99.99,,,0.00,Acu-Link.com,2013-03-20 16:28:00,
2013-03-20 12:43:00,76.1,64.8,29.77,East,90,0.0,-999.0,68,-99.99,,,0.00,Acu-Link.com,2013-03-20 16:43:00,
2013-03-20 12:58:00,77.2,65.4,29.76,ESE,112,1.1,-999.0,67,-99.99,,,0.00,Acu-Link.com,2013-03-20 16:58:00,
2013-03-20 13:13:00,76.6,64.4,29.75,SW,225,0.0,-999.0,66,-99.99,,,0.00,Acu-Link.com,2013-03-20 17:13:00,
2013-03-20 13:29:00,76.1,63.9,29.74,ESE,112,0.0,-999.0,66,-99.99,,,0.00,Acu-Link.com,2013-03-20 17:29:00,
2013-03-20 13:44:00,75.6,63.9,29.73,SSW,202,0.0,-999.0,67,-99.99,,,0.00,Acu-Link.com,2013-03-20 17:44:00,
2013-03-20 13:59:00,75.2,63.9,29.72,SW,225,0.0,-999.0,68,-99.99,,,0.00,Acu-Link.com,2013-03-20 17:59:00,
2013-03-20 14:15:00,75.2,63.5,29.72,SW,225,2.7,-999.0,67,-99.99,,,0.00,Acu-Link.com,2013-03-20 18:15:00,
2013-03-20 14:30:00,76.3,62.8,29.71,East,90,1.1,-999.0,63,-99.99,,,0.00,Acu-Link.com,2013-03-20 18:30:00,
2013-03-20 14:45:00,76.5,61.6,29.70,SSW,202,3.7,-999.0,60,-99.99,,,0.00,Acu-Link.com,2013-03-20 18:45:00,
2013-03-20 15:01:00,76.6,61.7,29.69,SW,225,3.7,-999.0,60,-99.99,,,0.00,Acu-Link.com,2013-03-20 19:01:00,
2013-03-20 15:31:00,75.0,59.2,29.67,West,270,0.0,-999.0,58,-99.99,,,0.00,Acu-Link.com,2013-03-20 19:31:00,
2013-03-20 15:46:00,74.3,59.0,29.68,WSW,247,3.2,-999.0,59,-99.99,,,0.00,Acu-Link.com,2013-03-20 19:46:00,
2013-03-20 16:02:00,74.8,60.0,29.67,West,270,3.7,-999.0,60,-99.99,,,0.00,Acu-Link.com,2013-03-20 20:02:00,
2013-03-20 16:17:00,74.7,59.9,29.66,SSW,202,3.2,-999.0,60,-99.99,,,0.00,Acu-Link.com,2013-03-20 20:17:00,
2013-03-20 16:33:00,75.0,59.7,29.64,West,270,3.7,-999.0,59,-99.99,,,0.00,Acu-Link.com,2013-03-20 20:33:00,
2013-03-20 16:48:00,75.2,59.4,29.64,SSW,202,1.1,-999.0,58,-99.99,,,0.00,Acu-Link.com,2013-03-20 20:48:00,
2013-03-20 17:03:00,75.7,59.9,29.65,ENE,67,0.0,-999.0,58,-99.99,,,0.00,Acu-Link.com,2013-03-20 21:03:00,
2013-03-20 17:19:00,75.0,59.2,29.65,SSW,202,0.0,-999.0,58,-99.99,,,0.00,Acu-Link.com,2013-03-20 21:19:00,
2013-03-20 17:34:00,75.0,59.2,29.65,SW,225,0.0,-999.0,58,-99.99,,,0.00,Acu-Link.com,2013-03-20 21:34:00,
2013-03-20 17:49:00,74.8,59.5,29.65,SW,225,0.0,-999.0,59,-99.99,,,0.00,Acu-Link.com,2013-03-20 21:49:00,
2013-03-20 18:04:00,73.6,57.9,29.65,South,180,2.7,-999.0,58,-99.99,,,0.00,Acu-Link.com,2013-03-20 22:04:00,
2013-03-20 18:20:00,72.9,57.2,29.66,WSW,247,1.7,-999.0,58,-99.99,,,0.00,Acu-Link.com,2013-03-20 22:20:00,
2013-03-20 18:35:00,72.1,57.0,29.67,SE,135,3.7,-999.0,59,-99.99,,,0.00,Acu-Link.com,2013-03-20 22:35:00,
2013-03-20 18:51:00,71.4,56.3,29.68,West,270,3.2,-999.0,59,-99.99,,,0.00,Acu-Link.com,2013-03-20 22:51:00,
2013-03-20 19:06:00,71.4,57.7,29.70,SSE,157,3.2,-999.0,62,-99.99,,,0.00,Acu-Link.com,2013-03-20 23:06:00,
2013-03-20 19:21:00,69.8,58.3,29.70,East,90,4.7,-999.0,67,-99.99,,,0.00,Acu-Link.com,2013-03-20 23:21:00,
2013-03-20 19:37:00,68.2,58.8,29.72,WSW,247,0.0,-999.0,72,-99.99,,,0.00,Acu-Link.com,2013-03-20 23:37:00,
2013-03-20 19:52:00,67.3,59.1,29.72,SW,225,4.7,-999.0,75,-99.99,,,0.00,Acu-Link.com,2013-03-20 23:52:00,
2013-03-20 20:07:00,66.4,59.3,29.71,South,180,3.7,-999.0,78,-99.99,,,0.01,Acu-Link.com,2013-03-21 00:07:00,
2013-03-20 20:22:00,66.2,59.5,29.72,West,270,4.7,-999.0,79,-99.99,,,0.01,Acu-Link.com,2013-03-21 00:22:00,
2013-03-20 20:38:00,65.7,59.7,29.71,NNW,337,2.7,-999.0,81,-99.99,,,0.01,Acu-Link.com,2013-03-21 00:38:00,
2013-03-20 20:53:00,65.7,59.7,29.74,SE,135,3.2,-999.0,81,-99.99,,,0.01,Acu-Link.com,2013-03-21 00:53:00,
2013-03-20 21:08:00,64.9,59.3,29.72,NNW,337,0.0,-999.0,82,-99.99,,,0.01,Acu-Link.com,2013-03-21 01:08:00,
2013-03-20 21:24:00,64.4,59.1,29.70,SW,225,0.0,-999.0,83,-99.99,,,0.01,Acu-Link.com,2013-03-21 01:24:00,
2013-03-20 21:39:00,64.4,59.1,29.70,WNW,292,2.2,-999.0,83,-99.99,,,0.01,Acu-Link.com,2013-03-21 01:39:00,
2013-03-20 21:54:00,64.2,59.3,29.71,SSW,202,2.2,-999.0,84,-99.99,,,0.01,Acu-Link.com,2013-03-21 01:54:00,
2013-03-20 22:10:00,63.7,58.8,29.72,North,0,0.0,-999.0,84,-99.99,,,0.01,Acu-Link.com,2013-03-21 02:10:00,
2013-03-20 22:25:00,63.7,58.8,29.72,NW,315,7.8,-999.0,84,-99.99,,,0.01,Acu-Link.com,2013-03-21 02:25:00,
2013-03-20 22:40:00,63.1,56.5,29.72,NNE,22,3.2,-999.0,79,-99.99,,,0.02,Acu-Link.com,2013-03-21 02:40:00,
2013-03-20 22:55:00,63.0,56.7,29.71,ENE,67,4.7,-999.0,80,-99.99,,,0.02,Acu-Link.com,2013-03-21 02:55:00,
2013-03-20 23:41:00,60.4,54.5,29.71,SW,225,0.0,-999.0,81,-99.99,,,0.02,Acu-Link.com,2013-03-21 03:41:00,
2013-03-20 23:57:00,59.9,54.7,29.71,SSW,202,0.0,-999.0,83,-99.99,,,0.02,Acu-Link.com,2013-03-21 03:57:00,